Back to catalog

PRAETORIAN SDA_620

AliveMilitaryPO
NORAD 65583·PAYLOAD·🇺🇸 United States

Launched Sep 10, 2025 from Vandenberg Space Force Base

Loading…

Next Passes (next 24 hours)

TLE

FreshSource: Space-Track

Epoch: Sep 14, 2026, 12:22 UTC

1 65583U 25203U   26257.51548257  .00000172  00000-0  14664-3 0  9992
2 65583  81.3002 288.2124 0006590 312.7620  47.2981 13.83211985 51043

Track PRAETORIAN SDA_620 in real time with AllMySat

Download on the App Store